Location: Castelbiague
(43.0361°N, 0.9246°E)
Time: 15:20:45
(UTC+00:00)

SL-16 R/B - Pass Details

Date: 17 June 2021
Orbit: 842 x 846 km, 71.0° (Epoch: 05 August)

Event Time Altitude Azimuth Distance (km) Brightness Sun altitude
Rises 21:25:07 0° 228° (SW) 3,388 5.3 -14.9°
Reaches altitude 10° 21:27:44 10° 237° (WSW) 2,457 4.6 -15.2°
Maximum altitude 21:32:55 37° 303° (WNW) 1,297 3.8 -15.7°
Drops below altitude 10° 21:38:09 10° 10° (N) 2,472 5.3 -16.2°
Sets 21:40:48 0° 19° (NNE) 3,411 5.9 -16.5°
